Weather reports worldwide

Advertisment
Bujaraloz, Spain (8165): temperature & dewpoint: 08.10.2019 14:00:00 - 14.10.2019 14:00:00 (CEST)Bujaraloz, Spain (8165): wind speed & gusts: 08.10.2019 14:00:00 - 14.10.2019 14:00:00 (CEST)Bujaraloz, Spain (8165): wind direction: 08.10.2019 14:00:00 - 14.10.2019 14:00:00 (CEST)Bujaraloz, Spain (8165): reduced air pressure: 08.10.2019 14:00:00 - 14.10.2019 14:00:00 (CEST)Bujaraloz, Spain (8165): visibility: 08.10.2019 14:00:00 - 14.10.2019 14:00:00 (CEST)Bujaraloz, Spain (8165): sunshine duration: 08.10.2019 14:00:00 - 14.10.2019 14:00:00 (CEST)Bujaraloz, Spain (8165): precipitation: 08.10.2019 14:00:00 - 14.10.2019 14:00:00 (CEST)
Date & Time tt [°C] td [°C] ff [km/h] ff [kn] fx [km/h] fx [kn] dd ppp [hPa] vv [km] sd [min] rr [mm]
14.10.2019 14:00:00 - - - - - - - - - - -
14.10.2019 13:00:00 22,1 18,5 9 5 22 12 ESE 1011,6 8 0 0,4
14.10.2019 12:00:00 23,4 16,9 11 6 24 13 ESE 1010,8 20 0 0,0
14.10.2019 11:00:00 22,8 16,8 14 7 25 14 ESE 1010,6 19 0 0,0
14.10.2019 10:00:00 21,6 17,4 17 9 25 14 E 1010,3 20 4 0,0
14.10.2019 09:00:00 20,8 16,6 15 8 24 13 E 1010,2 20 13 0,0
14.10.2019 08:00:00 19,6 16,8 18 10 27 15 E 1009,7 20 0 -
14.10.2019 07:00:00 19,3 16,7 21 11 29 15 E 1010,0 20 0 0,0
14.10.2019 06:00:00 19,3 16,7 19 10 26 14 E 1010,3 20 0 0,0
14.10.2019 05:00:00 19,3 16,6 16 9 25 13 E 1011,3 20 0 0,0
14.10.2019 04:00:00 19,3 16,7 14 8 23 12 E 1011,5 20 0 0,0
14.10.2019 03:00:00 19,3 16,7 15 8 22 12 E 1012,3 20 0 0,0
14.10.2019 02:00:00 19,6 16,6 14 8 22 12 ENE 1013,0 20 0 -
14.10.2019 01:00:00 20,0 16,2 12 7 23 12 ENE 1013,2 20 0 0,0
14.10.2019 00:00:00 20,6 16,4 15 8 25 13 E 1013,3 20 0 0,0
13.10.2019 23:00:00 21,2 16,8 16 8 29 16 E 1012,7 20 0 0,0
13.10.2019 22:00:00 21,4 17,0 19 10 36 19 ESE 1012,7 20 0 0,0
13.10.2019 21:00:00 22,1 16,6 24 13 37 20 ESE 1012,5 20 0 0,0
13.10.2019 20:00:00 22,9 16,6 23 12 47 25 ESE 1012,1 20 0 -
13.10.2019 19:00:00 24,1 16,9 26 14 47 26 ESE 1011,5 20 44 0,0
13.10.2019 18:00:00 26,0 16,6 29 16 50 27 ESE 1011,0 20 60 0,0
13.10.2019 17:00:00 27,6 16,6 25 13 45 25 ESE 1010,9 20 60 0,0
13.10.2019 16:00:00 27,6 16,2 26 14 38 21 E 1011,2 20 58 0,0
13.10.2019 15:00:00 27,8 16,1 23 13 35 19 ENE 1011,6 20 60 0,0
13.10.2019 14:00:00 27,2 16,2 17 9 29 16 NE 1012,7 20 60 -
13.10.2019 13:00:00 25,8 16,4 16 8 22 12 NE 1013,8 20 60 0,0
13.10.2019 12:00:00 24,0 17,2 7 4 11 6 NE 1014,5 20 60 0,0
13.10.2019 11:00:00 21,6 17,8 6 3 11 6 ENE 1014,8 18 57 0,0
13.10.2019 10:00:00 19,1 17,5 8 5 15 8 ENE 1014,7 19 54 0,0
13.10.2019 09:00:00 17,4 16,7 11 6 16 9 ENE 1014,4 14 26 0,0
13.10.2019 08:00:00 17,7 16,7 14 7 16 8 ENE 1013,9 15 0 -
13.10.2019 07:00:00 17,9 16,6 9 5 14 8 E 1014,0 20 0 0,0
13.10.2019 06:00:00 17,9 15,9 8 5 14 8 E 1013,9 20 0 0,0
13.10.2019 05:00:00 17,9 16,4 7 4 10 5 E 1014,4 20 0 0,0
13.10.2019 04:00:00 18,9 17,1 6 4 19 11 ENE 1014,8 20 0 0,0
13.10.2019 03:00:00 19,4 17,2 15 8 19 10 ENE 1015,1 20 0 0,0
13.10.2019 02:00:00 19,9 17,3 10 6 20 11 NE 1015,3 20 0 -
13.10.2019 01:00:00 20,5 16,9 11 6 27 14 ESE 1014,6 20 0 0,0
13.10.2019 00:00:00 20,3 16,6 14 8 24 13 E 1014,7 20 0 0,0
12.10.2019 23:00:00 20,9 15,9 16 8 29 16 E 1014,3 20 0 0,0
12.10.2019 22:00:00 21,4 15,7 18 10 33 18 ESE 1014,0 20 0 0,0
12.10.2019 21:00:00 21,6 16,3 19 10 34 18 ESE 1013,7 20 0 0,0
12.10.2019 20:00:00 22,3 16,3 28 15 44 24 E 1013,4 20 0 -
12.10.2019 19:00:00 23,5 16,6 26 14 47 26 ESE 1012,8 20 14 0,0
12.10.2019 18:00:00 24,8 16,7 30 16 49 26 E 1012,7 20 55 0,0
12.10.2019 17:00:00 26,0 16,6 31 17 45 25 ESE 1012,6 20 60 0,0
12.10.2019 16:00:00 29,6 15,3 26 14 46 25 SE 1012,5 20 53 0,0
12.10.2019 15:00:00 30,3 11,8 27 15 44 24 SSE 1012,4 20 52 0,0
12.10.2019 14:00:00 27,5 15,2 23 12 31 17 E 1014,1 20 60 -
12.10.2019 13:00:00 26,9 14,3 14 8 27 14 ENE 1015,0 20 60 0,0
12.10.2019 12:00:00 25,0 15,3 7 4 16 9 E 1015,8 20 56 0,0
12.10.2019 11:00:00 22,7 16,7 8 5 14 8 SE 1016,2 20 53 0,0
12.10.2019 10:00:00 20,5 16,9 8 4 14 8 E 1016,4 20 52 0,0
12.10.2019 09:00:00 17,2 15,2 4 2 6 3 NNE 1016,2 20 15 0,0
12.10.2019 08:00:00 18,6 16,4 3 2 12 6 ESE 1015,5 20 0 -
12.10.2019 07:00:00 18,4 15,8 11 6 15 8 ESE 1015,4 20 0 0,0
12.10.2019 06:00:00 19,0 15,9 6 4 9 5 E 1015,4 20 0 0,0
12.10.2019 05:00:00 19,0 15,9 7 4 10 5 E 1015,3 20 0 0,0
12.10.2019 04:00:00 19,4 16,2 5 3 10 5 E 1015,6 20 0 0,0
12.10.2019 03:00:00 19,6 16,6 6 4 12 6 E 1015,8 20 0 0,0
12.10.2019 02:00:00 19,8 16,8 10 6 16 8 E 1016,0 20 0 -
12.10.2019 01:00:00 20,0 16,8 11 6 17 9 E 1016,3 20 0 0,0
12.10.2019 00:00:00 20,4 17,1 10 5 25 13 E 1016,3 20 0 0,0
11.10.2019 23:00:00 20,8 17,1 16 8 24 13 E 1015,8 20 0 0,0
11.10.2019 22:00:00 21,3 17,5 18 10 29 16 E 1015,4 20 0 0,0
11.10.2019 21:00:00 22,0 17,5 19 10 29 16 E 1014,8 20 0 0,0
11.10.2019 20:00:00 23,3 17,5 19 11 39 21 E 1014,6 20 2 -
11.10.2019 19:00:00 25,2 17,1 24 13 34 19 E 1014,2 20 26 0,0
11.10.2019 18:00:00 27,1 16,4 22 12 33 18 E 1014,2 20 60 0,0
11.10.2019 17:00:00 28,4 16,0 9 5 21 11 ESE 1014,4 20 60 0,0
11.10.2019 16:00:00 26,1 15,4 5 3 11 6 NE 1015,6 20 60 0,0
11.10.2019 15:00:00 24,0 15,3 5 3 12 7 NE 1016,7 16 60 0,0
11.10.2019 14:00:00 22,0 14,9 8 4 12 7 NNE 1018,3 18 60 -
11.10.2019 13:00:00 20,3 14,6 4 2 13 7 NNW 1019,6 20 60 0,0
11.10.2019 12:00:00 18,1 14,2 4 2 11 6 ENE 1020,4 14 60 0,0
11.10.2019 11:00:00 16,4 13,5 5 3 10 5 NE 1020,9 20 13 0,0
11.10.2019 10:00:00 15,8 12,5 2 1 5 3 ESE 1020,6 20 0 0,0
11.10.2019 09:00:00 15,1 11,1 3 1 4 2 W 1020,3 20 0 0,0
11.10.2019 08:00:00 14,7 11,9 3 2 11 6 WNW 1019,8 20 0 -
11.10.2019 07:00:00 14,2 12,1 9 5 11 6 WNW 1019,6 20 0 0,0
11.10.2019 06:00:00 14,4 12,2 7 4 11 6 WNW 1019,6 20 0 0,0
11.10.2019 05:00:00 15,3 14,3 7 4 10 5 E 1019,4 16 0 0,0
11.10.2019 04:00:00 15,5 14,3 8 4 13 7 E 1019,5 20 0 0,0
11.10.2019 03:00:00 16,3 15,0 13 7 16 9 E 1019,6 19 0 0,0
11.10.2019 02:00:00 16,3 14,8 11 6 14 8 E 1019,8 20 0 -
11.10.2019 01:00:00 16,8 14,8 11 6 13 7 E 1019,8 20 0 0,0
11.10.2019 00:00:00 17,2 14,3 11 6 14 7 ENE 1019,9 20 0 0,0
10.10.2019 23:00:00 17,8 13,8 10 5 16 8 ENE 1019,7 20 0 0,0
10.10.2019 22:00:00 18,6 13,1 11 6 21 11 E 1019,5 20 0 0,0
10.10.2019 21:00:00 19,4 12,2 9 5 24 13 ESE 1019,1 20 0 0,0
10.10.2019 20:00:00 21,2 9,4 15 8 24 13 SE 1018,3 20 9 -
10.10.2019 19:00:00 22,1 8,5 5 3 8 4 NNE 1018,3 20 60 0,0
10.10.2019 18:00:00 22,5 8,3 4 2 12 6 NE 1018,2 20 60 0,0
10.10.2019 17:00:00 22,9 8,3 3 2 14 8 ENE 1018,6 20 60 0,0
10.10.2019 16:00:00 23,5 8,0 7 4 15 8 S 1019,0 20 60 0,0
10.10.2019 15:00:00 21,9 7,3 7 4 18 10 NNW 1019,7 20 60 0,0
10.10.2019 14:00:00 - - - - - - - - - - -
10.10.2019 13:00:00 19,1 7,1 13 7 25 14 NW 1021,7 20 45 0,0
10.10.2019 12:00:00 17,8 7,6 18 10 26 14 NW 1022,2 20 31 0,0
10.10.2019 11:00:00 17,0 7,6 23 13 29 16 WNW 1022,3 20 5 0,0
10.10.2019 10:00:00 16,3 7,3 20 11 30 16 NW 1022,1 20 9 0,0
10.10.2019 09:00:00 16,0 7,3 18 10 25 14 WNW 1021,1 20 0 0,0
10.10.2019 08:00:00 15,7 7,1 19 10 33 18 WNW 1020,8 20 0 -
10.10.2019 07:00:00 16,0 7,7 18 10 23 12 WNW 1020,6 20 0 0,0
10.10.2019 06:00:00 16,1 7,6 13 7 27 14 WNW 1020,3 20 0 0,0
10.10.2019 05:00:00 16,2 7,4 14 8 23 12 WNW 1020,0 20 0 0,0
10.10.2019 04:00:00 16,5 7,4 16 9 29 16 W 1020,2 20 0 0,0
10.10.2019 03:00:00 16,6 7,0 20 11 36 19 W 1020,4 20 0 0,0
10.10.2019 02:00:00 16,7 7,1 28 15 39 21 W 1020,2 20 0 -
10.10.2019 01:00:00 17,1 7,1 29 16 39 21 W 1019,9 20 0 0,0
10.10.2019 00:00:00 17,6 7,3 29 15 42 23 W 1019,5 20 0 0,0
09.10.2019 23:00:00 18,5 7,8 35 19 49 26 W 1018,5 20 0 0,0
09.10.2019 22:00:00 19,7 8,4 31 17 42 23 W 1018,1 20 0 0,0
09.10.2019 21:00:00 20,6 8,9 32 17 41 22 W 1017,1 20 0 0,0
09.10.2019 20:00:00 22,0 8,8 24 13 38 20 WNW 1016,1 20 11 -
09.10.2019 19:00:00 23,5 9,8 27 15 36 20 WNW 1015,2 20 60 0,0
09.10.2019 18:00:00 24,8 11,3 28 15 41 22 NW 1014,8 20 60 0,0
09.10.2019 17:00:00 25,6 12,1 25 14 39 21 NW 1014,7 20 60 0,0
09.10.2019 16:00:00 25,0 12,5 26 14 35 19 WNW 1014,8 20 60 0,0
09.10.2019 15:00:00 24,5 13,4 20 11 34 19 W 1015,0 20 60 0,0
09.10.2019 14:00:00 24,1 13,1 18 10 32 18 WNW 1015,5 20 60 -
09.10.2019 13:00:00 21,8 13,0 22 12 38 21 WNW 1016,4 20 60 0,0
09.10.2019 12:00:00 20,6 12,8 21 12 32 17 WNW 1016,9 20 60 0,0
09.10.2019 11:00:00 19,3 12,7 17 9 31 17 W 1016,8 20 56 0,0
09.10.2019 10:00:00 17,8 12,8 27 14 36 19 W 1016,9 20 36 0,0
09.10.2019 09:00:00 17,0 12,5 19 10 28 15 W 1016,5 20 0 0,0
09.10.2019 08:00:00 17,5 12,8 13 7 17 9 W 1015,3 20 0 -
09.10.2019 07:00:00 17,3 13,3 9 5 15 8 WSW 1015,1 20 0 0,0
09.10.2019 06:00:00 16,1 13,4 14 7 16 8 W 1015,0 20 0 0,0
09.10.2019 05:00:00 16,1 14,1 11 6 13 7 WNW 1014,7 20 0 0,0
09.10.2019 04:00:00 16,7 14,7 8 5 14 8 W 1014,5 20 0 0,0
09.10.2019 03:00:00 18,8 16,6 6 4 16 9 ENE 1014,6 20 0 0,0
09.10.2019 02:00:00 19,1 16,3 12 6 21 12 ENE 1014,6 20 0 -
09.10.2019 01:00:00 19,6 16,2 14 8 19 10 E 1014,5 20 0 0,0
09.10.2019 00:00:00 20,1 16,1 13 7 18 10 ENE 1014,5 20 0 0,0
08.10.2019 23:00:00 20,9 15,9 12 7 17 9 ENE 1013,8 20 0 0,0
08.10.2019 22:00:00 22,2 15,3 14 8 18 10 E 1013,6 20 0 0,0
08.10.2019 21:00:00 23,3 14,8 13 7 23 12 SE 1013,2 20 0 0,0
08.10.2019 20:00:00 25,1 13,7 14 8 22 12 ESE 1013,0 20 20 -
08.10.2019 19:00:00 27,6 6,4 4 2 6 4 ENE 1012,6 20 60 0,0
08.10.2019 18:00:00 28,0 6,1 4 2 11 6 NNE 1012,9 20 60 0,0
08.10.2019 17:00:00 27,0 8,9 7 4 12 6 NNE 1013,2 20 60 0,0
08.10.2019 16:00:00 26,5 7,0 5 3 15 8 ENE 1014,1 20 60 0,0
08.10.2019 15:00:00 25,3 4,5 6 3 16 9 NE 1014,8 20 60 0,0
08.10.2019 14:00:00 24,9 2,9 7 4 12 6 ENE 1015,9 20 60 -

tt = temperature
td = dewpoint
ff = wind speed
fx = gusts
dd = wind direction
ppp = reduced air pressure
vv = visibility
sd = sunshine duration
rr = precipitation

Next stations